星链-37652(STARLINK-37652)

导读

STARLINK-37652(NORAD编号69354)是美国太空探索技术公司(SpaceX)星链低轨通信星座的组成卫星,属于星链V2 Mini优化版批次,该批次卫星普遍支持更高传输速率,部分同代卫星已具备直连手机功能,可提供文本、语音及基础宽带网络服务。 作为星链全球组网的节点之一,该卫星运行于近地轨道,轨道倾角约53度,轨道高度约550公里,在轨周期约95分钟,截至2026年6月处于正常运营状态,与其他在轨星链卫星共同为全球偏远地区、海洋作业等场景提供低延迟通信覆盖,当前星链总在轨运营卫星已超1万颗,全球订阅用户规模突破1100万。

基本信息
目录编号:
69354
目录名称:
STARLINK-37652
国际标识:
2026-123B
轨道中心:
EARTH
卫星名称:
星链-37652
卫星全名:
星链-37652(STARLINK-37652)
卫星状态:
在轨 (已飞行9 天)
发射日期:
2026-06-04 UTC
国别 :
美国 (US)
星等 :
--
轨道信息
数据来源 国际轨道数据
星历时间: 2026-06-13T04:00:02+0800
7小时前
查看轨道信息
半长轴: 6702.058km
偏心率: 0.0000947
轨道倾角: 53.159°
近地点辐角 55.818°
升交点赤经 263.643°
平近点角 70.013°
近地点: 323.286km
远地点: 324.556km
周期: 91.006分钟
每日圈数: 15.823063
详细信息
固有亮度:
5
最大亮度:
2.5
卫星平台:
Starlink V1.0
覆盖范围:
全球
运营商:
太空探索技术公司
运营商所在国:
美国
制造商(研发单位):
太空探索技术公司
制造商所在国:
美国
使用方式:
暂无
卫星简介
Starlink 计划是 SpaceX 推出的全球卫星互联网项目,通过发射低轨道卫星,为全球尤其是偏远地区提供高速、低延迟的互联网服务。自 2019 年起,Starlink 已部署数千颗卫星,旨在缩小全球数字鸿沟,推动互联网普及。该项目还为军事、航空等行业提供通信支持,带来广泛经济效益。
2D轨道图
3D轨道图
轨道高度分析图
轨道倾角分析图
轨道综合分析图
查看轨道综合分析图